Hayward, WI

5:24 AM CDT on April 27, 2017 (GMT -0500)
Sawyer County

Weather History for KHYR - September, 2012

Change the Weather History Date:

Friday, September 21, 2012

  Actual Average Record
Temperature  
Mean Temperature 46 °F -  
Max Temperature 57 °F 68 °F 84 °F (2005)
Min Temperature 35 °F 46 °F 26 °F (1999)
Degree Days  
Heating Degree Days 19    
Moisture  
Dew Point 39 °F    
Average Humidity 81    
Maximum Humidity 100    
Minimum Humidity 40    
Precipitation  
Precipitation 0.49 in - - ()
Sea Level Pressure  
Sea Level Pressure 29.81 in    
Wind  
Wind Speed 3 mph (NW)    
Max Wind Speed 7 mph    
Max Gust Speed -    
Visibility 9 miles    
Events Rain    
Averages and records for this station are not official NWS values.
T = Trace of Precipitation, MM = Missing Value Source: NWS Daily Summary

Daily Weather History Graph

Daily Weather History Graph

Search for Another Location

Airport or City:

Trip Planner

Search our weather history database for the weather conditions in past years. The results will help you decide how hot, cold, wet, or windy it might be!

Date:

Astronomy

Sep. 21, 2012 Rise Set
Actual Time 6:52 AM CDT 7:04 PM CDT
Civil Twilight 6:22 AM CDT 7:34 PM CDT
Nautical Twilight 5:47 AM CDT 8:09 PM CDT
Astronomical Twilight 5:10 AM CDT 8:45 PM CDT
Moon 1:34 PM CDT (9/21) 10:45 PM CDT (9/21)
Length of Visible Light 13h 11m
Length of Day
12h 12m
Waxing Crescent, 37% of the Moon is Illuminated
Sep 21
Waxing Crescent
Sep 22
First Quarter
Sep 29
Full
Oct 8
Last Quarter
Oct 15
New

Hourly Weather History & Observations

Time (CDT) Temp. Windchill Dew Point Humidity Pressure Visibility Wind Dir Wind Speed Gust Speed Precip Events Conditions
12:53 AM 46.0 °F 43.9 °F 43.0 °F 89% 29.86 in 5.0 mi Variable 4.6 mph - 0.11 in Rain Rain
1:53 AM 45.0 °F 42.6 °F 42.1 °F 90% 29.84 in 10.0 mi SSW 4.6 mph - 0.06 in   Overcast
2:53 AM 45.0 °F - 43.0 °F 93% 29.83 in 10.0 mi Calm Calm - N/A   Overcast
3:20 AM 44.6 °F - 42.8 °F 93% 29.81 in 10.0 mi Calm Calm - N/A   Overcast
4:02 AM 44.6 °F 40.7 °F 42.8 °F 93% 29.80 in 10.0 mi Variable 6.9 mph - N/A   Overcast
4:15 AM 44.6 °F 43.1 °F 42.8 °F 93% 29.81 in 10.0 mi Variable 3.5 mph - N/A   Overcast
4:27 AM 44.6 °F 41.4 °F 42.8 °F 93% 29.81 in 8.0 mi Variable 5.8 mph - N/A   Overcast
4:53 AM 45.0 °F 42.6 °F 43.0 °F 93% 29.83 in 10.0 mi Variable 4.6 mph - N/A   Overcast
5:53 AM 44.1 °F - 42.1 °F 93% 29.83 in 10.0 mi Calm Calm - N/A   Mostly Cloudy
6:23 AM 42.8 °F - 39.2 °F 87% 29.81 in 10.0 mi Calm Calm - N/A   Scattered Clouds
6:48 AM 42.8 °F - 39.2 °F 87% 29.82 in 10.0 mi Calm Calm - N/A   Mostly Cloudy
6:53 AM 42.1 °F - 41.0 °F 96% 29.84 in 10.0 mi Calm Calm - N/A   Mostly Cloudy
7:38 AM 42.8 °F - 42.8 °F 100% 29.82 in 10.0 mi Calm Calm - N/A   Mostly Cloudy
7:53 AM 44.1 °F 41.5 °F 42.1 °F 93% 29.85 in 10.0 mi WNW 4.6 mph - N/A   Overcast
8:53 AM 45.0 °F 42.6 °F 42.1 °F 90% 29.86 in 10.0 mi WNW 4.6 mph - N/A   Mostly Cloudy
9:29 AM 48.2 °F - 42.8 °F 82% 29.82 in 10.0 mi Variable 4.6 mph - N/A   Scattered Clouds
9:53 AM 50.0 °F - 42.1 °F 74% 29.84 in 10.0 mi Variable 3.5 mph - N/A   Partly Cloudy
10:53 AM 52.0 °F - 39.0 °F 61% 29.83 in 10.0 mi Variable 4.6 mph - N/A   Scattered Clouds
11:53 AM 54.0 °F - 36.0 °F 51% 29.83 in 10.0 mi Variable 5.8 mph - N/A   Partly Cloudy
12:53 PM 53.1 °F - 35.1 °F 50% 29.82 in 10.0 mi Variable 4.6 mph - N/A   Mostly Cloudy
1:53 PM 57.0 °F - 33.1 °F 40% 29.80 in 10.0 mi NW 4.6 mph - N/A   Mostly Cloudy
2:53 PM 55.0 °F - 33.1 °F 43% 29.80 in 10.0 mi Variable 5.8 mph - N/A   Mostly Cloudy
3:53 PM 55.9 °F - 33.1 °F 42% 29.79 in 10.0 mi Variable 5.8 mph - N/A   Mostly Cloudy
4:53 PM 55.0 °F - 35.1 °F 47% 29.78 in 10.0 mi ENE 3.5 mph - 0.00 in   Scattered Clouds
5:53 PM 50.0 °F - 39.0 °F 66% 29.79 in 10.0 mi Calm Calm - N/A   Scattered Clouds
6:53 PM 46.0 °F - 42.1 °F 86% 29.79 in 10.0 mi Calm Calm - 0.00 in   Mostly Cloudy
7:53 PM 45.0 °F 42.6 °F 37.9 °F 76% 29.80 in 10.0 mi ENE 4.6 mph - N/A   Scattered Clouds
8:53 PM 39.0 °F - 37.0 °F 93% 29.78 in 9.0 mi Calm Calm - N/A   Mostly Cloudy
9:53 PM 44.1 °F 41.5 °F 39.0 °F 82% 29.80 in 4.0 mi Variable 4.6 mph - 0.04 in Rain Rain
10:20 PM 42.8 °F 40.1 °F 39.2 °F 87% 29.79 in 4.0 mi Variable 4.6 mph - 0.03 in Rain Rain
10:39 PM 42.8 °F 39.3 °F 39.2 °F 87% 29.79 in 3.0 mi Variable 5.8 mph - 0.10 in Rain Heavy Rain
10:53 PM 39.9 °F 35.1 °F 37.9 °F 93% 29.82 in 3.0 mi Variable 6.9 mph - 0.15 in Rain Heavy Rain
11:09 PM 35.6 °F 30.7 °F 33.8 °F 93% 29.79 in 4.0 mi Variable 5.8 mph - 0.10 in Rain Heavy Rain
11:28 PM 37.4 °F 34.9 °F 33.8 °F 87% 29.79 in 6.0 mi Variable 3.5 mph - 0.13 in Rain Light Rain
11:46 PM 37.4 °F - 35.6 °F 93% 29.80 in 10.0 mi Calm Calm - 0.13 in Rain Light Rain
11:53 PM 37.0 °F - 35.1 °F 93% 29.82 in 10.0 mi Calm Calm - 0.13 in Rain Light Rain